Change the Weather History Date:

Tuesday, May 28, 2013

  Actual Average Record
Temperature  
Mean Temperature 79 °F 77 °F  
Max Temperature 88 °F 88 °F 99 °F (1906)
Min Temperature 69 °F 67 °F 48 °F (1961)
Cooling Degree Days 14 12  
Month to date cooling degree days 212 257  
Year to date cooling degree days 339 416  
Growing Degree Days 28 (Base 50)    
Moisture  
Dew Point 68 °F    
Average Humidity 74    
Maximum Humidity 100    
Minimum Humidity 48    
Precipitation  
Precipitation 0.00 in 0.13 in 2.75 in (1915)
Month to date precipitation 2.86 4.23  
Year to date precipitation 23.90 23.51  
Sea Level Pressure  
Sea Level Pressure 29.97 in    
Wind  
Wind Speed 8 mph (SSE)    
Max Wind Speed 17 mph    
Max Gust Speed 21 mph    
Visibility 9 miles    
Events      
T = Trace of Precipitation, MM = Missing Value Source: NWS Daily Summary

Daily Weather History Graph

Daily Weather History Graph

Search for Another Location

Airport or City:

Trip Planner

Search our weather history database for the weather conditions in past years. The results will help you decide how hot, cold, wet, or windy it might be!

Date:

Astronomy

May. 28, 2013 Rise Set
Actual Time 6:07 AM CDT 8:07 PM CDT
Civil Twilight 5:40 AM CDT 8:35 PM CDT
Nautical Twilight 5:07 AM CDT 9:08 PM CDT
Astronomical Twilight 4:31 AM CDT 9:43 PM CDT
Moon 11:40 PM CDT (5/28) 9:50 AM CDT (5/28)
Length of Visible Light 14h 54m
Length of Day
14h 00m
Waning Gibbous, 82% of the Moon is Illuminated
May 28
Waning Gibbous
May 31
Last Quarter
Jun 8
New
Jun 16
First Quarter
Jun 23
Full

Hourly Weather History & Observations

Time (CDT) Temp. Heat Index Dew Point Humidity Pressure Visibility Wind Dir Wind Speed Gust Speed Precip Events Conditions
12:53 AM 69.1 °F - 66.9 °F 93% 30.02 in 10.0 mi SSE 5.8 mph - N/A   Clear
1:53 AM 69.1 °F - 68.0 °F 96% 29.99 in 8.0 mi SSE 4.6 mph - N/A   Clear
2:53 AM 70.0 °F - 69.1 °F 97% 29.98 in 8.0 mi SSE 4.6 mph - N/A   Clear
3:53 AM 69.1 °F - 68.0 °F 96% 29.98 in 7.0 mi SE 3.5 mph - N/A   Clear
4:53 AM 69.1 °F - 68.0 °F 96% 29.98 in 7.0 mi SE 4.6 mph - N/A   Clear
5:53 AM 70.0 °F - 69.1 °F 97% 29.98 in 7.0 mi SE 6.9 mph - N/A   Clear
6:53 AM 71.1 °F - 70.0 °F 96% 29.98 in 5.0 mi SE 6.9 mph - N/A   Clear
7:16 AM 71.6 °F - 69.8 °F 94% 29.98 in 7.0 mi SE 6.9 mph - N/A   Partly Cloudy
7:53 AM 73.0 °F - 71.1 °F 93% 29.99 in 9.0 mi SE 10.4 mph - N/A   Partly Cloudy
8:53 AM 77.0 °F - 71.1 °F 82% 29.99 in 10.0 mi SSE 8.1 mph - N/A   Partly Cloudy
9:53 AM 80.1 °F 83.2 °F 70.0 °F 71% 30.00 in 10.0 mi SSE 10.4 mph 18.4 mph N/A   Partly Cloudy
10:28 AM 80.6 °F 83.9 °F 69.8 °F 70% 29.99 in 10.0 mi South 9.2 mph - N/A   Mostly Cloudy
10:42 AM 80.6 °F 82.7 °F 66.2 °F 61% 30.00 in 10.0 mi South 9.2 mph - N/A   Mostly Cloudy
10:53 AM 82.0 °F 84.9 °F 68.0 °F 62% 30.01 in 10.0 mi SSE 9.2 mph - N/A   Partly Cloudy
11:53 AM 84.0 °F 86.3 °F 66.0 °F 55% 30.01 in 10.0 mi South 10.4 mph - N/A   Partly Cloudy
12:53 PM 84.9 °F 87.6 °F 66.9 °F 55% 29.99 in 10.0 mi SSE 10.4 mph - N/A   Mostly Cloudy
1:53 PM 86.0 °F 90.1 °F 69.1 °F 57% 29.98 in 10.0 mi South 12.7 mph 17.3 mph N/A   Partly Cloudy
2:53 PM 86.0 °F 89.4 °F 68.0 °F 55% 29.97 in 10.0 mi South 10.4 mph - N/A   Scattered Clouds
3:53 PM 86.0 °F 88.2 °F 66.0 °F 51% 29.95 in 10.0 mi South 10.4 mph 17.3 mph N/A   Partly Cloudy
4:53 PM 87.1 °F 89.2 °F 66.0 °F 49% 29.94 in 10.0 mi South 10.4 mph - N/A   Clear
5:53 PM 86.0 °F 87.6 °F 64.9 °F 49% 29.94 in 10.0 mi South 9.2 mph - N/A   Clear
6:53 PM 82.0 °F 83.8 °F 64.9 °F 56% 29.92 in 10.0 mi SSE 8.1 mph - N/A   Clear
7:53 PM 81.0 °F 83.0 °F 66.0 °F 60% 29.93 in 10.0 mi SSE 6.9 mph - N/A   Clear
8:53 PM 78.1 °F - 66.9 °F 68% 29.94 in 10.0 mi SSE 6.9 mph - N/A   Clear
9:53 PM - - - N/A% 29.94 in - North - - N/A   Unknown
10:53 PM - - - N/A% 29.96 in - North - - N/A   Unknown
11:53 PM 73.4 °F - 66.2 °F 78% 29.97 in 10.0 mi Calm Calm - N/A   Clear